TELSTAR 14R             
1 37602U 11021A   19260.78072214 -.00000284  00000-0  00000-0 0  9997
2 37602   0.0456 335.2089 0001133  55.0014 184.2680  1.00271856 31113
BREEZE-M R/B            
1 37603U 11021B   19261.02332330 -.00000040  00000-0  00000+0 0  9993
2 37603  13.1791 208.3969 4924671 263.1891  40.7650  1.92767698 58531
BREEZE-M DEB [TANK]     
1 37604U 11021C   19258.47567318 -.00000303  00000-0 -94084-4 0  9998
2 37604  49.4331   1.6901 6007476 304.0618  12.7604  3.99327142119129